• In Deutschland
  • Länderverzeichnis
  • Für 7 Tage
  • Wassertemperatur
  • Satellitenkarten
  • Wetterkarte
  • Widgets
  • user-avatar
    Anmelden

    Stündliche Wetter Saidpur

    Heute, 28 Mai, Montag

    Zeit Temperatur Niederschläge Wind Luftdruck Luftfeuchtigkeit
    00:00 +32°C° 0 mm 5 m/S 749 mmHg 74%
    01:00 +30°C° 0,6 mm 4 m/S 749 mmHg 76%
    02:00 +30°C° 0,6 mm 4 m/S 749 mmHg 78%
    03:00 +30°C° 0,6 mm 3 m/S 749 mmHg 80%
    04:00 +29°C° 0,7 mm 3 m/S 749 mmHg 81%
    05:00 +29°C° 0,7 mm 3 m/S 749 mmHg 83%
    06:00 +29°C° 0,7 mm 3 m/S 749 mmHg 84%
    07:00 +30°C° 0,1 mm 4 m/S 749 mmHg 78%
    08:00 +33°C° 0,1 mm 4 m/S 749 mmHg 72%
    09:00 +35°C° 0,1 mm 4 m/S 750 mmHg 66%
    10:00 +36°C° 0 mm 4 m/S 749 mmHg 61%
    11:00 +37°C° 0 mm 4 m/S 749 mmHg 56%
    12:00 +40°C° 0 mm 4 m/S 749 mmHg 51%
    13:00 +38°C° 0 mm 4 m/S 748 mmHg 51%
    14:00 +38°C° 0 mm 4 m/S 747 mmHg 51%
    15:00 +38°C° 0 mm 4 m/S 746 mmHg 51%
    16:00 +38°C° 0,1 mm 4 m/S 746 mmHg 52%
    17:00 +38°C° 0,1 mm 4 m/S 745 mmHg 53%
    18:00 +38°C° 0,1 mm 4 m/S 745 mmHg 54%
    19:00 +36°C° 0,3 mm 5 m/S 745 mmHg 58%
    20:00 +35°C° 0,3 mm 6 m/S 745 mmHg 62%
    21:00 +34°C° 0,3 mm 6 m/S 746 mmHg 67%
    22:00 +33°C° 11,1 mm 6 m/S 747 mmHg 72%
    23:00 +32°C° 11,1 mm 5 m/S 747 mmHg 78%

    Morgen, 29 Mai, Dienstag

    Zeit Temperatur Niederschläge Wind Luftdruck Luftfeuchtigkeit
    00:00 +30°C° 11,1 mm 4 m/S 748 mmHg 84%
    01:00 +29°C° 7 mm 4 m/S 748 mmHg 84%
    02:00 +29°C° 7 mm 4 m/S 748 mmHg 84%
    03:00 +29°C° 7 mm 4 m/S 748 mmHg 84%
    04:00 +28°C° 0,4 mm 4 m/S 748 mmHg 85%
    05:00 +28°C° 0,4 mm 4 m/S 748 mmHg 86%
    06:00 +28°C° 0,4 mm 5 m/S 749 mmHg 87%
    07:00 +29°C° 0,1 mm 5 m/S 749 mmHg 80%
    08:00 +32°C° 0,1 mm 5 m/S 749 mmHg 73%
    09:00 +33°C° 0,1 mm 5 m/S 749 mmHg 66%
    10:00 +34°C° 0 mm 5 m/S 748 mmHg 62%
    11:00 +35°C° 0 mm 4 m/S 748 mmHg 58%
    12:00 +36°C° 0 mm 4 m/S 748 mmHg 55%
    13:00 +36°C° 0 mm 4 m/S 747 mmHg 51%
    14:00 +37°C° 0 mm 4 m/S 746 mmHg 48%
    15:00 +38°C° 0 mm 3 m/S 745 mmHg 44%
    16:00 +38°C° 0 mm 3 m/S 745 mmHg 46%
    17:00 +37°C° 0 mm 3 m/S 745 mmHg 48%
    18:00 +37°C° 0 mm 3 m/S 745 mmHg 51%
    19:00 +35°C° 0 mm 3 m/S 746 mmHg 53%
    20:00 +34°C° 0 mm 4 m/S 746 mmHg 56%
    21:00 +33°C° 0 mm 4 m/S 747 mmHg 59%
    22:00 +33°C° 0 mm 4 m/S 747 mmHg 61%
    23:00 +32°C° 0 mm 4 m/S 747 mmHg 63%

    übermorgen, 30 Mai, Mittwoch

    Zeit Temperatur Niederschläge Wind Luftdruck Luftfeuchtigkeit
    00:00 +31°C° 0 mm 3 m/S 747 mmHg 66%
    01:00 +30°C° 0,5 mm 3 m/S 747 mmHg 69%
    02:00 +29°C° 0,5 mm 3 m/S 747 mmHg 72%
    03:00 +28°C° 0,5 mm 2 m/S 747 mmHg 75%
    04:00 +28°C° 0,7 mm 3 m/S 747 mmHg 76%
    05:00 +28°C° 0,7 mm 3 m/S 747 mmHg 76%
    06:00 +28°C° 0,7 mm 3 m/S 747 mmHg 77%
    07:00 +29°C° 0,5 mm 4 m/S 748 mmHg 72%
    08:00 +32°C° 0,5 mm 4 m/S 748 mmHg 67%
    09:00 +33°C° 0,5 mm 5 m/S 749 mmHg 62%
    10:00 +35°C° 0 mm 5 m/S 748 mmHg 57%
    11:00 +36°C° 0 mm 4 m/S 748 mmHg 53%
    12:00 +38°C° 0 mm 4 m/S 748 mmHg 48%
    13:00 +40°C° 0 mm 4 m/S 747 mmHg 46%
    14:00 +41°C° 0 mm 4 m/S 747 mmHg 43%
    15:00 +40°C° 0 mm 3 m/S 746 mmHg 41%
    16:00 +40°C° 0 mm 3 m/S 746 mmHg 44%
    17:00 +39°C° 0 mm 3 m/S 746 mmHg 47%
    18:00 +39°C° 0 mm 3 m/S 746 mmHg 50%
    19:00 +37°C° 0,4 mm 3 m/S 746 mmHg 55%
    20:00 +36°C° 0,4 mm 4 m/S 747 mmHg 61%
    21:00 +34°C° 0,4 mm 4 m/S 748 mmHg 66%
    22:00 +33°C° 1,9 mm 4 m/S 748 mmHg 72%
    23:00 +32°C° 1,9 mm 4 m/S 749 mmHg 78%

    31 Mai, Donnerstag

    Zeit Temperatur Niederschläge Wind Luftdruck Luftfeuchtigkeit
    00:00 +30°C° 1,9 mm 4 m/S 749 mmHg 84%
    01:00 +30°C° 1,2 mm 3 m/S 749 mmHg 85%
    02:00 +30°C° 1,2 mm 3 m/S 749 mmHg 86%
    03:00 +30°C° 1,2 mm 2 m/S 749 mmHg 87%
    04:00 +30°C° 0,9 mm 3 m/S 749 mmHg 87%
    05:00 +30°C° 0,9 mm 3 m/S 749 mmHg 87%
    06:00 +30°C° 0,9 mm 3 m/S 750 mmHg 88%
    07:00 +31°C° 0,6 mm 3 m/S 750 mmHg 81%
    08:00 +34°C° 0,6 mm 4 m/S 751 mmHg 75%
    09:00 +35°C° 0,6 mm 4 m/S 751 mmHg 69%
    10:00 +36°C° 0 mm 4 m/S 751 mmHg 65%
    11:00 +36°C° 0 mm 4 m/S 751 mmHg 62%
    12:00 +37°C° 0 mm 5 m/S 750 mmHg 59%
    13:00 +37°C° 0 mm 5 m/S 750 mmHg 60%
    14:00 +37°C° 0 mm 5 m/S 749 mmHg 60%
    15:00 +37°C° 0 mm 5 m/S 749 mmHg 60%
    16:00 +36°C° 0,1 mm 5 m/S 748 mmHg 63%
    17:00 +36°C° 0,1 mm 6 m/S 748 mmHg 65%
    18:00 +35°C° 0,1 mm 6 m/S 748 mmHg 68%
    19:00 +34°C° 1,7 mm 6 m/S 749 mmHg 72%
    20:00 +33°C° 1,7 mm 6 m/S 750 mmHg 76%
    21:00 +32°C° 1,7 mm 6 m/S 751 mmHg 80%
    22:00 +30°C° 2 mm 6 m/S 751 mmHg 82%
    23:00 +30°C° 2 mm 5 m/S 751 mmHg 85%

    1 Juni, Freitag

    Zeit Temperatur Niederschläge Wind Luftdruck Luftfeuchtigkeit
    00:00 +29°C° 2 mm 5 m/S 751 mmHg 87%
    01:00 +29°C° 3,9 mm 5 m/S 751 mmHg 88%
    02:00 +29°C° 3,9 mm 5 m/S 750 mmHg 90%
    03:00 +28°C° 3,9 mm 4 m/S 750 mmHg 91%
    04:00 +28°C° 0,9 mm 5 m/S 751 mmHg 91%
    05:00 +28°C° 0,9 mm 5 m/S 751 mmHg 91%
    06:00 +28°C° 0,9 mm 5 m/S 751 mmHg 91%
    07:00 +29°C° 1,2 mm 6 m/S 752 mmHg 87%
    08:00 +30°C° 1,2 mm 6 m/S 752 mmHg 84%
    09:00 +32°C° 1,2 mm 6 m/S 753 mmHg 80%
    10:00 +33°C° 1,4 mm 5 m/S 753 mmHg 75%
    11:00 +34°C° 1,4 mm 5 m/S 753 mmHg 70%
    12:00 +35°C° 1,4 mm 5 m/S 752 mmHg 65%
    13:00 +36°C° 0,2 mm 5 m/S 751 mmHg 63%
    14:00 +36°C° 0,2 mm 5 m/S 751 mmHg 61%
    15:00 +37°C° 0,2 mm 5 m/S 750 mmHg 59%
    16:00 +36°C° 0,3 mm 4 m/S 750 mmHg 62%
    17:00 +35°C° 0,3 mm 4 m/S 749 mmHg 65%
    18:00 +35°C° 0,3 mm 3 m/S 749 mmHg 68%
    19:00 +34°C° 0 mm 3 m/S 750 mmHg 71%
    20:00 +33°C° 0 mm 3 m/S 750 mmHg 74%
    21:00 +31°C° 0 mm 3 m/S 750 mmHg 77%
    22:00 +32°C° 1,5 mm 4 m/S 751 mmHg 79%
    23:00 +30°C° 1,5 mm 4 m/S 751 mmHg 81%

    2 Juni, Samstag

    Zeit Temperatur Niederschläge Wind Luftdruck Luftfeuchtigkeit
    00:00 +30°C° 1,5 mm 4 m/S 751 mmHg 83%
    01:00 +29°C° 4,6 mm 3 m/S 750 mmHg 85%
    02:00 +29°C° 4,6 mm 3 m/S 750 mmHg 87%
    03:00 +29°C° 4,6 mm 2 m/S 750 mmHg 89%
    04:00 +29°C° 2,2 mm 2 m/S 750 mmHg 87%
    05:00 +29°C° 2,2 mm 2 m/S 750 mmHg 84%
    06:00 +30°C° 2,2 mm 3 m/S 751 mmHg 82%
    07:00 +31°C° 0,5 mm 3 m/S 751 mmHg 77%
    08:00 +33°C° 0,5 mm 3 m/S 751 mmHg 73%
    09:00 +34°C° 0,5 mm 4 m/S 752 mmHg 68%
    10:00 +35°C° 0,3 mm 4 m/S 752 mmHg 64%
    11:00 +36°C° 0,3 mm 3 m/S 752 mmHg 59%
    12:00 +37°C° 0,3 mm 3 m/S 751 mmHg 55%
    13:00 +37°C° 0 mm 3 m/S 751 mmHg 53%
    14:00 +38°C° 0 mm 3 m/S 750 mmHg 52%
    15:00 +38°C° 0 mm 3 m/S 749 mmHg 50%
    16:00 +37°C° 0,1 mm 2 m/S 749 mmHg 53%
    17:00 +37°C° 0,1 mm 2 m/S 749 mmHg 56%
    18:00 +37°C° 0,1 mm 2 m/S 749 mmHg 58%
    19:00 +36°C° 0 mm 2 m/S 749 mmHg 62%
    20:00 +35°C° 0 mm 3 m/S 749 mmHg 65%
    21:00 +34°C° 0 mm 3 m/S 750 mmHg 68%
    22:00 +33°C° 0,5 mm 3 m/S 750 mmHg 71%
    23:00 +33°C° 0,5 mm 3 m/S 750 mmHg 73%
    Mehr zeigen